Date String (YYYY-MM-DD hh:mm:ss) UTC,Instrument flags,Ambient pressure (hPa),Sample flow (lpm),Bypass flow (lpm),Sample temperature (°C),Ambient temperature (°C),ASC tube jacket temperature (°C),LED temperature (°C),Box temperature (°C),Sample RH (%),Span deviation,Mass concentration (μg/m³),Mass concentration (μg/m³),Mass concentration (μg/m³)
DateTimeUTC,F1_M11,P_M11,Q1_M11,Q2_M11,T1_M11,T2_M11,T3_M11,T4_M11,T5_M11,U1_M11,ZSPAN_M11,X0_M11,X2_M11,X1_M11
2022-01-22 19:00:00,,0830.0,4.99,0.00,24.5,23.8,00.0,33.4,26.4,12.6,0000.0,0008.72,0005.03,0004.76
2022-01-22 19:01:00,,0830.0,5.01,0.00,24.6,23.8,00.0,33.4,26.4,12.5,0000.0,0008.69,0005.02,0004.77
2022-01-22 19:02:00,,0830.0,4.99,0.00,24.6,23.8,00.0,33.4,26.4,12.6,0000.0,0008.62,0005.00,0004.76
2022-01-22 19:03:00,,0830.1,4.99,0.00,24.6,23.9,00.0,33.5,26.5,13.0,0000.0,0008.67,0004.99,0004.76
2022-01-22 19:04:00,,0830.1,5.01,0.00,24.6,23.9,00.0,33.5,26.5,12.9,0000.0,0008.81,0004.99,0004.76
2022-01-22 19:05:00,,0830.0,5.00,0.00,24.6,23.9,00.0,33.5,26.5,12.7,0000.0,0008.79,0004.96,0004.76
2022-01-22 19:06:00,,0830.0,4.99,0.00,24.6,23.9,00.0,33.5,26.5,12.3,0000.0,0008.85,0004.97,0004.76
2022-01-22 19:07:00,,0830.0,5.01,0.00,24.7,24.0,00.0,33.5,26.6,12.5,0000.0,0009.02,0004.99,0004.76
2022-01-22 19:08:00,,0830.0,5.01,0.00,24.7,24.0,00.0,33.5,26.6,12.9,0000.0,0008.84,0005.01,0004.77
2022-01-22 19:09:00,,0830.0,4.99,0.00,24.7,24.0,00.0,33.5,26.6,12.6,0000.0,0009.01,0005.02,0004.78
2022-01-22 19:10:00,,0829.9,4.99,0.00,24.7,24.0,00.0,33.6,26.6,12.2,0000.0,0008.75,0005.04,0004.79
2022-01-22 19:11:00,,0829.9,4.99,0.00,24.8,24.0,00.0,33.6,26.7,12.3,0000.0,0008.36,0005.06,0004.81
2022-01-22 19:12:00,,0829.9,5.01,0.00,24.8,24.0,00.0,33.6,26.7,12.5,0000.0,0008.39,0005.06,0004.82
2022-01-22 19:13:00,,0829.9,5.00,0.00,24.8,24.1,00.0,33.6,26.7,12.5,0000.0,0008.38,0005.05,0004.82
2022-01-22 19:14:00,,0829.9,5.00,0.00,24.8,24.1,00.0,33.6,26.7,12.4,0000.0,0008.12,0005.06,0004.83
2022-01-22 19:15:00,,0829.8,5.00,0.00,24.8,24.1,00.0,33.7,26.7,12.4,0000.0,0008.06,0005.06,0004.83
2022-01-22 19:16:00,,0829.8,5.01,0.00,24.8,24.1,00.0,33.7,26.7,12.2,0000.0,0007.97,0005.06,0004.83
2022-01-22 19:17:00,,0829.8,4.99,0.00,24.8,24.1,00.0,33.7,26.7,12.2,0000.0,0007.92,0005.05,0004.83
2022-01-22 19:18:00,,0829.8,5.00,0.00,24.9,24.1,00.0,33.7,26.8,12.4,0000.0,0007.78,0005.03,0004.83
2022-01-22 19:19:00,,0829.8,5.01,0.00,24.9,24.1,00.0,33.7,26.8,12.2,0000.0,0007.71,0005.02,0004.82
2022-01-22 19:20:00,,0829.8,5.00,0.00,24.9,24.2,00.0,33.7,26.8,12.0,0000.0,0007.53,0005.00,0004.82
2022-01-22 19:21:00,,0829.9,5.01,0.00,24.9,24.2,00.0,33.7,26.8,12.0,0000.0,0007.35,0004.97,0004.80
2022-01-22 19:22:00,,0829.9,4.98,0.00,24.9,24.2,00.0,33.8,26.8,11.9,0000.0,0007.33,0004.96,0004.79
2022-01-22 19:23:00,,0829.9,5.02,0.00,24.9,24.2,00.0,33.8,26.8,12.1,0000.0,0007.55,0004.99,0004.79
2022-01-22 19:24:00,,0829.9,5.00,0.00,24.9,24.2,00.0,33.8,26.8,11.8,0000.0,0007.31,0004.98,0004.79
2022-01-22 19:25:00,,0829.9,5.00,0.00,24.9,24.2,00.0,33.8,26.8,11.7,0000.0,0007.30,0004.98,0004.78
2022-01-22 19:26:00,,0829.8,5.00,0.00,24.9,24.2,00.0,33.8,26.8,11.8,0000.0,0007.30,0004.99,0004.78
2022-01-22 19:27:00,,0829.8,5.01,0.00,25.0,24.2,00.0,33.8,26.8,11.7,0000.0,0007.35,0005.01,0004.79
2022-01-22 19:28:00,,0829.8,4.99,0.00,25.0,24.2,00.0,33.9,26.8,11.8,0000.0,0007.37,0005.03,0004.80
2022-01-22 19:29:00,,0829.8,4.99,0.00,25.0,24.1,00.0,33.9,26.8,11.6,0000.0,0007.34,0005.05,0004.81
2022-01-22 19:30:00,,0829.7,5.00,0.00,25.0,24.1,00.0,33.9,26.8,11.7,0000.0,0007.16,0005.05,0004.83
2022-01-22 19:31:00,,0829.7,5.01,0.00,25.0,24.1,00.0,33.9,26.8,11.9,0000.0,0007.23,0005.07,0004.84
2022-01-22 19:32:00,,0829.7,5.00,0.00,25.0,24.2,00.0,33.9,26.8,11.8,0000.0,0007.28,0005.09,0004.85
2022-01-22 19:33:00,,0829.6,5.00,0.00,25.0,24.2,00.0,33.9,26.8,11.9,0000.0,0007.30,0005.10,0004.86
2022-01-22 19:34:00,,0829.6,5.00,0.00,25.0,24.2,00.0,33.9,26.8,11.9,0000.0,0006.95,0005.09,0004.86
2022-01-22 19:35:00,,0829.6,5.00,0.00,25.0,24.2,00.0,33.9,26.8,11.7,0000.0,0006.88,0005.10,0004.87
2022-01-22 19:36:00,,0829.6,4.99,0.00,25.0,24.3,00.0,33.9,26.9,11.7,0000.0,0006.78,0005.11,0004.88
2022-01-22 19:37:00,,0829.5,5.02,0.00,25.0,24.2,00.0,33.9,26.9,11.7,0000.0,0007.37,0005.09,0004.88
2022-01-22 19:38:00,,0829.5,5.00,0.00,25.0,24.2,00.0,33.9,26.9,11.8,0000.0,0007.84,0005.13,0004.89
2022-01-22 19:39:00,,0829.6,5.00,0.00,25.0,24.2,00.0,33.9,26.9,11.8,0000.0,0007.95,0005.13,0004.90
2022-01-22 19:40:00,,0829.6,5.00,0.00,25.0,24.2,00.0,33.9,26.9,11.5,0000.0,0008.71,0005.13,0004.90
2022-01-22 19:41:00,,0829.7,4.99,0.00,25.0,24.3,00.0,34.0,26.9,11.9,0000.0,0008.84,0005.13,0004.90
2022-01-22 19:42:00,,0829.6,5.02,0.00,25.0,24.3,00.0,34.0,26.9,11.8,0000.0,0008.84,0005.14,0004.90
2022-01-22 19:43:00,,0829.7,5.00,0.00,25.0,24.3,00.0,34.0,26.9,11.6,0000.0,0008.86,0005.15,0004.91
2022-01-22 19:44:00,,0829.6,4.99,0.00,25.1,24.3,00.0,34.0,26.9,11.6,0000.0,0008.89,0005.17,0004.92
2022-01-22 19:45:00,,0829.7,5.01,0.00,25.1,24.3,00.0,34.0,26.9,11.6,0000.0,0008.90,0005.19,0004.93
2022-01-22 19:46:00,,0829.6,5.01,0.00,25.1,24.3,00.0,34.0,26.9,11.5,0000.0,0008.90,0005.20,0004.93
2022-01-22 19:47:00,,0829.6,4.99,0.00,25.1,24.3,00.0,34.0,26.9,11.6,0000.0,0008.87,0005.18,0004.93
2022-01-22 19:48:00,,0829.6,5.00,0.00,25.1,24.3,00.0,34.0,26.9,11.5,0000.0,0008.61,0005.19,0004.93
2022-01-22 19:49:00,,0829.6,5.00,0.00,25.1,24.3,00.0,34.0,27.0,11.6,0000.0,0008.27,0005.15,0004.92
2022-01-22 19:50:00,,0829.6,5.01,0.00,25.1,24.4,00.0,34.0,27.0,11.8,0000.0,0008.11,0005.12,0004.90
2022-01-22 19:51:00,,0829.6,4.99,0.00,25.1,24.4,00.0,34.0,27.0,11.8,0000.0,0007.25,0005.10,0004.89
2022-01-22 19:52:00,,0829.6,5.01,0.00,25.1,24.4,00.0,34.0,27.0,11.6,0000.0,0007.03,0005.09,0004.89
2022-01-22 19:53:00,,0829.6,5.00,0.00,25.2,24.4,00.0,34.1,27.0,11.7,0000.0,0006.88,0005.05,0004.86
2022-01-22 19:54:00,,0829.6,4.99,0.00,25.2,24.4,00.0,34.1,27.0,11.6,0000.0,0006.84,0005.03,0004.84
2022-01-22 19:55:00,,0829.6,5.00,0.00,25.2,24.5,00.0,34.1,27.0,11.5,0000.0,0007.36,0005.00,0004.83
2022-01-22 19:56:00,,0829.6,5.01,0.00,25.2,24.5,00.0,34.1,27.1,11.7,0000.0,0007.80,0004.96,0004.80
2022-01-22 19:57:00,,0829.5,5.01,0.00,25.2,24.5,00.0,34.1,27.1,11.5,0000.0,0007.84,0004.94,0004.78
2022-01-22 19:58:00,,0829.6,4.99,0.00,25.2,24.5,00.0,34.1,27.1,11.7,0000.0,0008.39,0004.94,0004.78
2022-01-22 19:59:00,,0829.6,4.99,0.00,25.2,24.5,00.0,34.1,27.1,11.6,0000.0,0008.23,0004.92,0004.76
